N7MK PAVD-PAMC

Flight info

Callsign N7MK
Flight time N/A
Altitude 22000
Route TED J111 MCG
Aircraft B36T/L-SBDFGRY/SB1

Departure

Time 2026-04-16 02:51
Airport Valdez Pioneer Field (PAVD)

Arrival

Time N/A
Airport McGrath Airport (PAMC)
Time Latitude Longitude Altitude Speed Heading
2026-04-16 02:38 61.13214 -146.24230 88 ft 0 kts 347°
2026-04-16 02:48 61.13221 -146.24234 90 ft 8 kts 347°
2026-04-16 02:48 61.13265 -146.24262 91 ft 0 kts 298°
2026-04-16 02:48 61.13250 -146.24243 89 ft 16 kts 83°
2026-04-16 02:48 61.13275 -146.23933 95 ft 25 kts 84°
2026-04-16 02:49 61.13312 -146.23591 103 ft 20 kts 78°
2026-04-16 02:49 61.13332 -146.23372 106 ft 12 kts 79°
2026-04-16 02:49 61.13340 -146.23248 110 ft 6 kts 86°
2026-04-16 02:49 61.13342 -146.23180 112 ft 7 kts 89°
2026-04-16 02:50 61.13350 -146.23019 115 ft 18 kts 75°
2026-04-16 02:50 61.13389 -146.22701 125 ft 11 kts 59°
2026-04-16 02:50 61.13416 -146.22662 125 ft 7 kts 15°
2026-04-16 02:50 61.13522 -146.22694 127 ft 22 kts 332°
2026-04-16 02:51 61.13524 -146.23067 117 ft 44 kts 260°
2026-04-16 02:51 61.13425 -146.24215 105 ft 113 kts 259°
2026-04-16 02:51 61.13230 -146.25934 502 ft 130 kts 256°
2026-04-16 02:51 61.13065 -146.27855 1015 ft 143 kts 261°
2026-04-16 02:52 61.12880 -146.29950 1555 ft 151 kts 260°
2026-04-16 02:52 61.12691 -146.32108 2006 ft 153 kts 260°
2026-04-16 02:52 61.12504 -146.34285 2407 ft 154 kts 260°
2026-04-16 02:52 61.12268 -146.36441 2996 ft 154 kts 254°
2026-04-16 02:53 61.11989 -146.38590 3680 ft 154 kts 254°
2026-04-16 02:53 61.11720 -146.40737 4214 ft 154 kts 253°
2026-04-16 02:53 61.11448 -146.42876 4730 ft 154 kts 252°
2026-04-16 02:53 61.11177 -146.45015 5264 ft 154 kts 252°
2026-04-16 02:54 61.10906 -146.47149 5784 ft 154 kts 251°
2026-04-16 02:54 61.10632 -146.49296 6329 ft 154 kts 251°
2026-04-16 02:54 61.10358 -146.51440 6825 ft 154 kts 252°
2026-04-16 02:54 61.10085 -146.53579 7336 ft 153 kts 252°
2026-04-16 02:55 61.09814 -146.55694 7851 ft 152 kts 253°
2026-04-16 02:55 61.09546 -146.57786 8374 ft 150 kts 253°
2026-04-16 02:55 61.09278 -146.59865 8918 ft 148 kts 255°
2026-04-16 02:55 61.09015 -146.61912 9449 ft 146 kts 255°
2026-04-16 02:56 61.08754 -146.63932 9984 ft 145 kts 256°
2026-04-16 02:56 61.08497 -146.65924 10463 ft 143 kts 256°
2026-04-16 02:56 61.08241 -146.67910 10925 ft 143 kts 257°
2026-04-16 02:56 61.07986 -146.69883 11377 ft 143 kts 256°
2026-04-16 02:57 61.07727 -146.71861 11867 ft 145 kts 257°
2026-04-16 02:57 61.07464 -146.73888 12448 ft 146 kts 257°
2026-04-16 02:57 61.07204 -146.75912 13053 ft 146 kts 258°
2026-04-16 02:57 61.06942 -146.77931 13636 ft 145 kts 258°
2026-04-16 02:58 61.06680 -146.79939 14163 ft 144 kts 258°
2026-04-16 02:58 61.06417 -146.81940 14666 ft 145 kts 258°
2026-04-16 02:58 61.06154 -146.83961 15191 ft 146 kts 258°
2026-04-16 02:58 61.05834 -146.85944 15733 ft 149 kts 245°
2026-04-16 02:59 61.05060 -146.87440 16330 ft 160 kts 218°
2026-04-16 02:59 61.03916 -146.87862 16853 ft 181 kts 184°
2026-04-16 02:59 61.02668 -146.87245 17445 ft 185 kts 178°
2026-04-16 02:59 61.01422 -146.86591 18041 ft 185 kts 179°
2026-04-16 03:00 61.00172 -146.85949 18565 ft 185 kts 180°
2026-04-16 03:00 60.98923 -146.85312 19018 ft 185 kts 180°
2026-04-16 03:00 60.97673 -146.84678 19488 ft 185 kts 181°
2026-04-16 03:00 60.96422 -146.84043 19955 ft 185 kts 182°
2026-04-16 03:01 60.95166 -146.83407 20437 ft 185 kts 182°
2026-04-16 03:01 60.93928 -146.82780 20919 ft 185 kts 183°
2026-04-16 03:01 60.92675 -146.82146 21404 ft 185 kts 184°
2026-04-16 03:01 60.91408 -146.81507 21902 ft 185 kts 185°
2026-04-16 03:02 60.90141 -146.81417 21977 ft 181 kts 209°
2026-04-16 03:02 60.88988 -146.82370 21983 ft 178 kts 228°
2026-04-16 03:02 60.88132 -146.84086 21985 ft 173 kts 246°
2026-04-16 03:02 60.87646 -146.86300 21984 ft 171 kts 259°
2026-04-16 03:03 60.87250 -146.88670 21982 ft 179 kts 256°
2026-04-16 03:03 60.86800 -146.91099 21979 ft 183 kts 255°
2026-04-16 03:03 60.86312 -146.93500 22028 ft 182 kts 253°
2026-04-16 03:03 60.85790 -146.95873 22022 ft 182 kts 252°
2026-04-16 03:04 60.85232 -146.98213 22022 ft 183 kts 251°
2026-04-16 03:04 60.84633 -147.00529 22020 ft 185 kts 249°
2026-04-16 03:04 60.83996 -147.02825 22020 ft 185 kts 248°
2026-04-16 03:04 60.83323 -147.05085 22018 ft 186 kts 247°
2026-04-16 03:05 60.82613 -147.07310 22013 ft 187 kts 245°
2026-04-16 03:05 60.81868 -147.09490 22015 ft 187 kts 244°
2026-04-16 03:05 60.81086 -147.11628 22012 ft 188 kts 242°
2026-04-16 03:05 60.80265 -147.13732 22009 ft 189 kts 241°
2026-04-16 03:06 60.79409 -147.15787 22005 ft 190 kts 239°
2026-04-16 03:06 60.78529 -147.17768 22005 ft 191 kts 238°
2026-04-16 03:06 60.76639 -147.21627 22000 ft 190 kts 235°
2026-04-16 03:07 60.75676 -147.23411 22003 ft 189 kts 234°
2026-04-16 03:07 60.74660 -147.25177 22008 ft 189 kts 232°
2026-04-16 03:07 60.73643 -147.26833 22001 ft 190 kts 231°
2026-04-16 03:07 60.72585 -147.28445 21998 ft 190 kts 230°
2026-04-16 03:08 60.71497 -147.29993 21993 ft 191 kts 228°
2026-04-16 03:08 60.70378 -147.31478 21995 ft 192 kts 226°
2026-04-16 03:08 60.69234 -147.32892 21997 ft 193 kts 225°
2026-04-16 03:08 60.68058 -147.34240 21990 ft 195 kts 223°
2026-04-16 03:09 60.66850 -147.35519 21989 ft 196 kts 221°
2026-04-16 03:09 60.65620 -147.36749 21991 ft 195 kts 224°
2026-04-16 03:09 60.64646 -147.38466 21991 ft 180 kts 243°
2026-04-16 03:09 60.64060 -147.40631 21989 ft 171 kts 257°
2026-04-16 03:10 60.63863 -147.42973 21998 ft 167 kts 271°
2026-04-16 03:10 60.64043 -147.45316 21997 ft 170 kts 284°
2026-04-16 03:10 60.64525 -147.47535 22002 ft 171 kts 289°
2026-04-16 03:10 60.65017 -147.49748 22006 ft 171 kts 289°
2026-04-16 03:11 60.65510 -147.51973 21998 ft 172 kts 289°
2026-04-16 03:11 60.66006 -147.54201 22002 ft 173 kts 289°
2026-04-16 03:11 60.66502 -147.56430 22002 ft 173 kts 289°
2026-04-16 03:11 60.66999 -147.58666 22001 ft 173 kts 289°
2026-04-16 03:12 60.67494 -147.60903 22001 ft 173 kts 289°
2026-04-16 03:12 60.67991 -147.63142 21999 ft 173 kts 289°
2026-04-16 03:12 60.68487 -147.65382 21999 ft 173 kts 289°
2026-04-16 03:12 60.68983 -147.67626 21996 ft 173 kts 288°
2026-04-16 03:13 60.69477 -147.69865 21999 ft 173 kts 288°
2026-04-16 03:13 60.69971 -147.72103 21997 ft 173 kts 288°
2026-04-16 03:13 60.70465 -147.74344 21998 ft 173 kts 288°
2026-04-16 03:13 60.70957 -147.76579 22000 ft 172 kts 288°
2026-04-16 03:14 60.71449 -147.78815 22000 ft 172 kts 288°
2026-04-16 03:14 60.71939 -147.81048 21994 ft 173 kts 288°
2026-04-16 03:14 60.72431 -147.83290 21996 ft 173 kts 288°
2026-04-16 03:14 60.72916 -147.85500 21995 ft 172 kts 288°
2026-04-16 03:15 60.73406 -147.87738 21997 ft 173 kts 288°
2026-04-16 03:15 60.73896 -147.89976 21998 ft 173 kts 288°
2026-04-16 03:15 60.74386 -147.92219 21998 ft 173 kts 288°
2026-04-16 03:15 60.74875 -147.94459 21998 ft 173 kts 288°
2026-04-16 03:16 60.75364 -147.96701 22003 ft 173 kts 288°
2026-04-16 03:16 60.75852 -147.98943 21999 ft 173 kts 288°
2026-04-16 03:16 60.76341 -148.01192 21998 ft 173 kts 288°
2026-04-16 03:16 60.76830 -148.03438 21998 ft 173 kts 288°
2026-04-16 03:17 60.77317 -148.05685 21996 ft 173 kts 288°
2026-04-16 03:17 60.77806 -148.07937 22000 ft 173 kts 288°
2026-04-16 03:17 60.78293 -148.10184 22000 ft 173 kts 288°
2026-04-16 03:17 60.78779 -148.12433 21996 ft 173 kts 288°
2026-04-16 03:18 60.79266 -148.14691 21994 ft 174 kts 288°
2026-04-16 03:18 60.79756 -148.16952 21992 ft 173 kts 288°
2026-04-16 03:18 60.80243 -148.19206 21990 ft 173 kts 288°
2026-04-16 03:18 60.80729 -148.21465 21994 ft 173 kts 288°
2026-04-16 03:19 60.81216 -148.23725 21992 ft 173 kts 288°
2026-04-16 03:19 60.81538 -148.25223 21993 ft 173 kts 288°
2026-04-16 03:19 60.82023 -148.27480 21995 ft 173 kts 288°
2026-04-16 03:19 60.82508 -148.29740 21994 ft 173 kts 288°
2026-04-16 03:20 60.83151 -148.32738 21993 ft 173 kts 288°
2026-04-16 03:20 60.83635 -148.35001 21992 ft 173 kts 288°
2026-04-16 03:20 60.83963 -148.36531 21994 ft 173 kts 288°
2026-04-16 03:20 60.84446 -148.38794 21995 ft 173 kts 288°
2026-04-16 03:21 60.84929 -148.41057 21993 ft 173 kts 288°
2026-04-16 03:21 60.85412 -148.43322 21987 ft 172 kts 288°
2026-04-16 03:21 60.85891 -148.45565 21989 ft 171 kts 287°
2026-04-16 03:21 60.86366 -148.47798 21981 ft 169 kts 288°
2026-04-16 03:22 60.86833 -148.50000 21994 ft 169 kts 287°
2026-04-16 03:22 60.87306 -148.52230 21996 ft 172 kts 287°
2026-04-16 03:22 60.87788 -148.54497 21996 ft 174 kts 287°
2026-04-16 03:22 60.88268 -148.56767 21998 ft 173 kts 287°
2026-04-16 03:23 60.88752 -148.59056 21985 ft 176 kts 288°
2026-04-16 03:23 60.89236 -148.61338 21984 ft 173 kts 287°
2026-04-16 03:23 60.89717 -148.63633 21987 ft 177 kts 287°
2026-04-16 03:23 60.90208 -148.65945 21976 ft 176 kts 288°
2026-04-16 03:24 60.90692 -148.68238 21986 ft 175 kts 287°
2026-04-16 03:24 60.91167 -148.70499 21983 ft 175 kts 287°
2026-04-16 03:24 60.91648 -148.72786 21984 ft 173 kts 287°
2026-04-16 03:24 60.92127 -148.75072 21991 ft 175 kts 288°
2026-04-16 03:25 60.92613 -148.77388 21990 ft 177 kts 288°
2026-04-16 03:25 60.93102 -148.79724 21987 ft 178 kts 287°
2026-04-16 03:25 60.93590 -148.82048 21987 ft 176 kts 287°
2026-04-16 03:25 60.94074 -148.84372 21987 ft 176 kts 287°
2026-04-16 03:26 60.94558 -148.86683 21981 ft 175 kts 287°
2026-04-16 03:26 60.95036 -148.88974 21987 ft 173 kts 287°
2026-04-16 03:26 60.95509 -148.91249 21990 ft 173 kts 287°
2026-04-16 03:26 60.95984 -148.93544 21985 ft 175 kts 286°
2026-04-16 03:27 60.96465 -148.95843 21995 ft 175 kts 287°
2026-04-16 03:27 60.96949 -148.98166 21993 ft 177 kts 287°
2026-04-16 03:27 60.97431 -149.00492 21988 ft 176 kts 287°
2026-04-16 03:27 60.97909 -149.02803 21994 ft 175 kts 287°
2026-04-16 03:28 60.98383 -149.05093 21996 ft 177 kts 287°
2026-04-16 03:28 60.98867 -149.07436 21992 ft 178 kts 287°
2026-04-16 03:28 60.99351 -149.09779 21987 ft 177 kts 287°
2026-04-16 03:28 60.99830 -149.12101 21987 ft 175 kts 286°
2026-04-16 03:29 61.00303 -149.14401 21999 ft 175 kts 287°
2026-04-16 03:29 61.00780 -149.16721 21991 ft 176 kts 287°
2026-04-16 03:29 61.01261 -149.19051 21979 ft 176 kts 287°
2026-04-16 03:29 61.01734 -149.21355 21981 ft 174 kts 287°
2026-04-16 03:30 61.02203 -149.23646 21982 ft 173 kts 287°
2026-04-16 03:30 61.02672 -149.25936 21990 ft 175 kts 286°
2026-04-16 03:30 61.03149 -149.28271 21990 ft 177 kts 287°
2026-04-16 03:30 61.03629 -149.30606 21984 ft 177 kts 287°
2026-04-16 03:31 61.04106 -149.32951 21988 ft 178 kts 287°
2026-04-16 03:31 61.04588 -149.35318 21991 ft 179 kts 287°
2026-04-16 03:31 61.05071 -149.37693 21986 ft 180 kts 287°
2026-04-16 03:31 61.05555 -149.40063 21982 ft 178 kts 286°
2026-04-16 03:32 61.06033 -149.42414 21979 ft 178 kts 286°
2026-04-16 03:32 61.06510 -149.44768 21987 ft 178 kts 286°
2026-04-16 03:34 61.09840 -149.61247 21993 ft 179 kts 286°
2026-04-16 03:34 61.10319 -149.63629 21993 ft 180 kts 286°
2026-04-16 03:34 61.10800 -149.66025 21995 ft 181 kts 286°
2026-04-16 03:34 61.11283 -149.68428 21991 ft 180 kts 286°
2026-04-16 03:35 61.11761 -149.70810 21997 ft 179 kts 286°
2026-04-16 03:35 61.12238 -149.73198 21996 ft 180 kts 286°
2026-04-16 03:35 61.12714 -149.75579 21992 ft 179 kts 286°
2026-04-16 03:35 61.13191 -149.77966 21995 ft 179 kts 286°
2026-04-16 03:36 61.13666 -149.80347 21995 ft 179 kts 286°
2026-04-16 03:36 61.14141 -149.82728 21992 ft 179 kts 286°
2026-04-16 03:36 61.14607 -149.85073 21996 ft 179 kts 286°
2026-04-16 03:36 61.15085 -149.87479 21994 ft 178 kts 286°
2026-04-16 03:37 61.15550 -149.89820 21998 ft 178 kts 286°
2026-04-16 03:37 61.16028 -149.92227 21995 ft 178 kts 286°